Wind_Speed
11 10 9 8 8 7 6 6 6 5 5 5 6 6 6 6 7 7 7 7 6 6 5 5 5 5 6 6 6 7 7 7 6 6 6 6 5 5 5 5 4 4 4 4
12 12 10 10 9 8 7 7 7 6 5 5 6 7 6 6 7 6 6 7 7 6 6 6 5 5 6 6 7 7 8 7 7 6 6 5 5 5 5 4 4 4 4 4
13 12 11 10 9 9 8 7 7 7 7 6 6 6 6 6 7 7 6 6 6 6 6 6 6 6 6 6 6 7 7 7 7 6 6 5 5 5 5 5 4 4 4 4
14 13 12 11 11 10 9 8 8 8 7 7 7 5 5 6 6 6 6 6 6 6 6 6 6 6 7 7 6 6 7 7 7 6 6 6 5 5 5 5 5 5 4 4
15 15 14 13 12 11 10 10 9 9 8 8 7 6 5 5 5 6 6 6 6 6 6 6 6 7 7 8 7 7 7 7 7 6 6 6 5 5 5 5 5 5 5 4
15 15 14 13 13 13 11 11 10 10 9 9 8 7 6 6 6 6 6 6 6 6 6 6 6 7 8 8 7 7 7 7 7 7 6 6 5 5 5 6 6 6 6 5
15 15 14 13 13 13 12 12 12 12 11 10 10 9 7 6 6 6 6 6 6 6 7 7 7 7 7 8 8 8 7 8 8 7 6 6 6 6 6 6 6 7 7 6
15 15 14 14 14 14 13 13 13 13 12 11 11 10 8 7 7 7 6 6 6 7 7 7 7 7 7 8 8 8 8 8 8 8 7 7 7 7 7 7 7 8 7 7
17 16 16 15 15 15 14 14 13 13 14 13 12 11 9 8 8 7 7 7 7 7 7 7 8 8 8 8 8 9 8 8 8 8 8 8 8 8 8 9 9 8 8 7
18 18 17 16 16 16 15 15 15 14 15 15 14 13 10 9 9 9 9 9 9 8 8 8 9 9 9 9 9 9 9 8 8 9 9 9 8 8 9 9 9 9 9 9
19 19 18 18 17 16 16 16 16 17 17 16 15 14 12 11 10 10 10 10 10 9 9 9 9 10 10 10 10 10 10 10 9 9 9 9 9 10 9 9 9 10 10 10
21 21 20 19 18 18 18 18 17 18 17 17 16 15 13 13 12 12 12 12 11 10 10 10 10 10 10 10 11 11 11 11 10 10 10 10 10 10 10 10 10 10 11 12
22 21 21 21 20 20 20 19 19 19 19 18 18 16 15 14 14 14 13 13 13 12 12 11 11 11 11 11 12 12 12 11 11 11 11 11 11 11 11 12 11 11 12 12
23 23 22 21 21 21 21 20 20 20 20 19 19 17 17 16 16 15 15 15 15 14 14 14 13 13 12 13 13 13 12 12 12 12 12 12 12 12 12 12 13 13 13 13
24 24 23 22 22 22 22 21 21 21 20 20 19 19 18 18 18 17 17 17 17 16 16 15 15 14 14 15 15 14 14 14 13 13 13 13 13 13 13 13 13 13 13 13
25 24 23 23 23 23 23 23 22 22 21 21 21 19 19 19 19 19 18 18 18 17 17 17 16 16 16 16 16 16 16 16 15 15 14 14 14 15 15 14 14 14 14 14
25 25 25 24 25 25 24 23 24 23 23 23 22 20 20 21 21 20 19 20 20 20 19 19 18 18 18 18 17 18 17 17 17 16 16 16 15 15 15 15 15 15 15 15
26 26 26 25 25 27 24 24 24 24 23 24 23 22 22 23 22 21 21 21 21 21 21 20 20 20 19 19 19 19 19 19 18 18 17 17 17 17 16 16 16 15 15 15
27 27 27 27 27 27 25 23 24 24 24 24 24 25 25 24 23 22 22 22 22 23 22 22 22 21 21 21 21 21 21 20 20 19 19 18 19 18 18 18 17 17 16 16
28 28 29 28 28 27 25 23 24 25 25 25 25 25 26 25 25 24 24 23 23 24 24 24 23 23 22 22 22 22 22 22 21 21 21 20 20 19 20 20 19 19 19 18
29 29 30 29 29 27 25 25 25 26 25 25 25 26 26 26 26 25 25 25 25 25 25 24 24 24 24 24 23 23 23 23 23 23 23 22 21 21 21 21 21 21 21 20
30 30 30 30 29 26 25 26 27 27 26 26 26 26 26 27 27 26 26 26 26 26 26 26 25 26 26 25 25 25 25 25 25 25 25 24 24 24 23 23 23 23 22 23
31 31 30 30 29 27 26 27 27 28 27 27 27 27 27 27 28 28 28 27 27 27 27 26 27 27 27 27 26 26 27 27 27 27 27 27 26 26 25 25 25 24 24 24
31 31 31 31 29 29 28 27 28 29 29 28 29 29 29 29 29 29 29 29 29 29 28 28 28 28 27 27 27 27 28 28 28 28 28 27 27 26 26 26 26 26 26 26
29 31 32 31 30 30 29 29 29 29 30 30 31 30 30 30 30 30 29 30 30 29 29 29 28 28 28 27 28 28 28 28 27 27 27 27 26 26 26 26 25 25 25 26
29 31 32 31 31 31 30 30 31 31 31 32 32 32 32 32 31 31 30 31 31 31 31 30 29 29 28 28 28 28 28 27 27 27 27 28 28 27 27 27 26 24 24 24
Wind_Direction
249 252 255 259 264 267 267 270 285 299 312 314 321 330 337 344 347 349 352 355 355 351 347 346 344 343 341 335 341 340 346 346 342 339 338 341 342 340 334 325 314 303 294 295
248 250 251 254 259 268 271 272 282 293 304 306 316 324 328 338 341 344 352 354 357 357 352 348 341 339 337 333 335 338 341 345 345 337 336 337 343 341 338 335 323 313 306 306
246 249 251 254 258 265 270 275 282 291 297 301 307 315 321 330 333 337 347 352 349 350 352 350 348 344 342 336 332 334 338 340 344 342 335 333 338 341 343 346 346 334 319 319
245 245 246 249 255 260 265 270 275 284 294 302 303 306 317 326 328 331 340 345 344 341 344 343 339 342 341 337 335 335 337 339 345 345 344 341 337 340 342 340 342 335 325 314
241 242 242 243 250 257 264 267 271 277 286 295 298 299 311 321 321 325 329 339 343 339 336 334 333 338 337 335 334 336 337 335 339 339 339 339 337 338 339 337 335 331 324 317
241 242 243 245 248 252 259 263 266 274 278 284 291 295 306 313 317 319 324 332 336 332 327 322 322 327 331 331 328 327 329 330 331 331 334 337 332 329 330 333 333 331 327 315
240 241 244 246 249 252 255 259 262 271 276 283 284 286 296 296 301 306 317 323 327 323 318 316 315 319 324 326 322 316 318 322 324 325 326 329 324 321 323 323 322 322 320 313
241 239 241 245 247 251 254 255 261 269 277 279 280 283 288 288 291 293 303 309 312 315 310 308 310 314 320 321 321 316 312 313 317 319 316 317 317 315 314 312 312 315 314 311
241 241 241 245 246 248 251 253 258 264 271 274 275 278 281 281 287 290 294 297 299 305 304 300 300 305 314 318 319 319 312 309 310 312 311 307 308 308 306 305 306 308 307 303
241 243 241 243 245 247 250 254 257 260 264 268 272 272 277 280 281 286 289 293 295 296 297 298 298 300 307 311 311 312 312 308 305 307 309 307 304 305 303 302 300 302 303 300
242 245 245 246 246 247 249 251 256 258 261 264 267 270 273 272 275 278 283 287 293 293 292 291 295 298 301 304 303 304 306 307 305 305 306 304 301 302 303 301 297 294 294 296
244 246 246 247 247 249 251 253 256 259 262 264 265 267 270 270 269 272 277 282 287 290 290 290 291 295 296 297 299 300 302 304 302 301 302 302 301 301 301 301 297 292 291 292
243 246 248 249 249 249 252 254 257 259 260 264 267 269 267 269 268 271 274 277 281 286 288 288 287 289 290 291 292 295 298 299 299 300 300 300 301 300 298 296 294 292 291 289
243 247 249 251 252 252 252 253 255 257 258 263 266 267 266 268 269 271 273 275 279 284 285 284 284 285 286 289 290 290 292 293 294 296 296 298 299 299 297 294 291 289 289 287
245 248 249 250 252 253 254 254 255 257 260 262 264 263 263 264 269 270 272 274 276 279 281 280 280 281 283 285 286 287 288 290 291 292 292 294 295 295 296 294 291 289 290 289
246 249 249 250 252 254 254 255 256 258 258 261 262 261 261 261 264 267 270 273 274 277 279 279 278 277 279 280 283 285 287 288 289 289 290 291 290 293 294 292 289 286 287 288
246 250 250 250 251 253 253 254 256 256 258 259 261 263 261 259 263 267 269 272 274 275 277 276 276 277 277 277 279 282 285 289 289 288 288 288 288 291 292 289 287 286 285 286
247 250 252 252 251 252 253 254 256 257 256 258 259 259 260 260 263 266 268 269 272 273 275 277 276 277 277 277 278 279 283 285 285 283 284 285 287 288 288 287 284 284 285 285
249 250 253 253 253 254 253 253 255 257 257 257 258 257 258 261 263 264 267 269 270 272 275 276 275 275 275 276 277 278 280 282 283 282 282 283 284 283 284 283 282 281 282 285
251 252 254 255 256 256 254 254 255 257 257 256 258 258 260 261 263 266 268 269 269 269 270 272 273 272 272 273 274 277 278 280 280 281 281 282 281 281 281 281 279 279 281 284
250 252 254 256 257 257 255 255 255 257 259 259 260 260 261 263 265 267 268 269 269 268 268 269 270 270 271 271 273 275 276 277 278 278 281 282 280 279 279 278 277 277 278 280
249 252 254 254 256 258 255 254 256 258 259 260 260 260 261 263 265 266 267 269 269 269 268 269 270 270 270 271 272 273 274 275 275 276 278 279 279 279 278 277 276 276 275 276
250 251 253 254 256 256 256 256 257 258 259 260 260 260 261 263 265 266 267 269 269 269 269 269 270 271 270 270 272 273 273 273 273 274 276 278 278 278 277 276 276 274 273 274
250 250 252 254 256 257 258 259 257 258 260 260 260 262 262 264 266 268 269 269 269 270 269 270 270 270 270 270 271 272 272 273 274 274 274 275 276 276 276 275 275 273 271 271
249 249 252 253 255 257 258 260 260 261 262 262 262 263 264 264 265 267 268 269 269 269 270 270 270 270 269 271 272 272 273 273 272 273 273 274 275 275 276 276 276 274 273 271
248 250 251 253 254 257 259 260 262 264 265 265 265 265 267 267 267 267 268 270 269 268 268 270 271 270 269 269 270 271 271 272 273 273 274 274 275 275 275 275 274 273 272 272
Height
5886 5887 5887 5887 5887 5887 5887 5886 5886 5885 5884 5884 5883 5882 5881 5880 5879 5877 5876 5875 5873 5872 5871 5871 5870 5868 5867 5866 5864 5863 5862 5861 5859 5858 5857 5856 5855 5853 5852 5851 5851 5850 5849 5849
5884 5884 5885 5885 5885 5885 5885 5884 5884 5884 5883 5882 5881 5881 5880 5878 5877 5876 5875 5873 5873 5871 5870 5869 5868 5867 5866 5865 5863 5862 5861 5860 5858 5857 5856 5855 5854 5852 5851 5850 5849 5849 5848 5848
5881 5882 5882 5882 5882 5883 5883 5883 5882 5882 5881 5881 5880 5880 5878 5877 5876 5874 5873 5872 5871 5870 5869 5868 5867 5866 5865 5864 5862 5861 5860 5859 5857 5856 5855 5854 5853 5852 5851 5850 5849 5848 5847 5846
5878 5879 5879 5880 5880 5880 5880 5881 5880 5880 5879 5879 5879 5878 5877 5876 5875 5873 5872 5871 5870 5869 5868 5867 5866 5865 5864 5863 5861 5860 5859 5857 5856 5855 5854 5853 5852 5851 5850 5849 5848 5847 5846 5845
5874 5875 5876 5877 5878 5878 5878 5878 5878 5877 5877 5877 5876 5876 5876 5875 5873 5872 5871 5870 5869 5868 5867 5866 5865 5864 5863 5862 5860 5859 5858 5856 5855 5854 5853 5852 5851 5850 5849 5848 5847 5846 5845 5844
5871 5872 5873 5874 5875 5875 5875 5876 5875 5875 5875 5875 5874 5874 5874 5873 5872 5870 5869 5868 5868 5867 5866 5865 5864 5863 5862 5861 5859 5858 5857 5856 5854 5853 5852 5851 5850 5849 5848 5847 5846 5845 5844 5843
5867 5868 5869 5871 5871 5872 5872 5873 5873 5872 5872 5873 5872 5871 5872 5871 5870 5869 5868 5867 5866 5865 5864 5863 5863 5861 5860 5859 5858 5857 5855 5854 5853 5852 5851 5850 5849 5848 5847 5846 5845 5844 5843 5842
5863 5865 5866 5867 5868 5868 5869 5870 5871 5870 5870 5870 5869 5868 5869 5868 5867 5867 5866 5865 5865 5864 5863 5862 5861 5860 5859 5858 5856 5855 5854 5853 5852 5850 5849 5848 5847 5846 5845 5844 5843 5842 5841 5840
5859 5861 5862 5863 5864 5865 5865 5866 5867 5867 5866 5866 5865 5866 5866 5865 5865 5864 5864 5863 5863 5862 5861 5860 5859 5858 5857 5856 5855 5853 5852 5851 5850 5849 5848 5846 5845 5844 5843 5842 5841 5840 5839 5838
5855 5857 5858 5859 5860 5861 5862 5862 5862 5862 5862 5862 5862 5862 5863 5863 5862 5862 5862 5861 5860 5860 5859 5858 5857 5856 5855 5854 5853 5852 5851 5849 5848 5847 5845 5844 5843 5842 5841 5840 5839 5838 5837 5836
5850 5852 5854 5854 5855 5856 5857 5858 5858 5858 5858 5859 5858 5861 5860 5860 5859 5859 5859 5858 5858 5857 5856 5855 5855 5854 5853 5852 5851 5850 5849 5847 5846 5845 5844 5842 5841 5840 5839 5837 5836 5835 5834 5833
5845 5847 5848 5849 5851 5851 5852 5853 5853 5854 5854 5854 5855 5859 5856 5856 5856 5855 5855 5855 5855 5854 5853 5853 5852 5851 5850 5849 5848 5847 5846 5845 5844 5842 5841 5840 5838 5837 5836 5834 5833 5832 5831 5830
5839 5841 5843 5844 5847 5847 5847 5848 5848 5849 5849 5849 5851 5854 5852 5852 5852 5851 5851 5851 5851 5851 5850 5850 5849 5848 5847 5846 5845 5844 5843 5842 5841 5839 5838 5837 5836 5834 5833 5831 5830 5829 5827 5826
5833 5835 5837 5839 5840 5841 5841 5842 5843 5844 5844 5845 5846 5847 5847 5847 5847 5847 5847 5847 5847 5847 5847 5846 5845 5844 5843 5842 5841 5840 5839 5838 5837 5836 5835 5834 5832 5831 5829 5828 5826 5825 5824 5822
5826 5829 5831 5832 5833 5834 5835 5837 5837 5838 5839 5840 5841 5841 5842 5842 5842 5842 5842 5842 5842 5842 5842 5842 5841 5840 5839 5838 5837 5837 5835 5834 5833 5832 5831 5830 5828 5827 5825 5824 5822 5821 5820 5819
5820 5822 5824 5826 5827 5828 5829 5830 5831 5832 5833 5833 5834 5836 5836 5836 5837 5837 5837 5837 5837 5838 5837 5837 5837 5836 5835 5834 5833 5832 5831 5830 5829 5828 5827 5825 5824 5823 5821 5820 5818 5817 5816 5815
5814 5816 5817 5819 5820 5820 5822 5825 5825 5826 5826 5828 5828 5831 5830 5830 5831 5831 5831 5832 5832 5832 5832 5831 5831 5830 5830 5829 5828 5828 5827 5826 5825 5824 5822 5821 5819 5818 5817 5815 5814 5813 5812 5811
5808 5809 5810 5812 5814 5814 5819 5818 5818 5819 5820 5821 5822 5823 5823 5824 5825 5825 5825 5826 5826 5826 5826 5825 5825 5825 5824 5823 5823 5822 5821 5820 5819 5818 5817 5816 5815 5813 5812 5811 5809 5808 5807 5806
5801 5802 5803 5804 5805 5807 5810 5811 5811 5812 5814 5815 5815 5816 5817 5817 5818 5819 5819 5819 5820 5820 5819 5819 5819 5818 5818 5817 5817 5817 5816 5815 5814 5813 5812 5810 5809 5808 5806 5805 5804 5803 5803 5802
5793 5794 5796 5796 5797 5799 5805 5805 5804 5806 5806 5808 5808 5808 5809 5810 5811 5813 5812 5812 5812 5813 5813 5812 5812 5812 5811 5811 5810 5810 5809 5808 5808 5807 5806 5804 5803 5802 5801 5800 5799 5798 5797 5796
5785 5786 5787 5788 5789 5792 5796 5796 5797 5799 5801 5801 5801 5801 5802 5802 5804 5805 5805 5805 5805 5805 5805 5805 5805 5804 5804 5803 5803 5803 5802 5801 5801 5800 5799 5798 5796 5795 5794 5793 5792 5792 5791 5790
5777 5778 5780 5781 5782 5787 5788 5788 5789 5790 5791 5792 5793 5793 5794 5795 5795 5796 5796 5797 5797 5797 5797 5797 5797 5797 5796 5795 5795 5795 5794 5794 5793 5792 5791 5790 5789 5788 5787 5786 5785 5784 5784 5783
5769 5771 5772 5774 5777 5778 5779 5780 5781 5781 5783 5784 5785 5786 5786 5787 5787 5787 5788 5788 5788 5788 5788 5788 5788 5788 5788 5787 5787 5787 5786 5785 5784 5784 5783 5782 5781 5780 5779 5777 5777 5776 5776 5776
5760 5762 5763 5765 5767 5769 5770 5771 5772 5773 5774 5775 5776 5777 5778 5778 5779 5779 5779 5779 5779 5780 5780 5780 5779 5779 5779 5779 5779 5778 5777 5776 5776 5775 5774 5773 5772 5771 5770 5769 5768 5767 5767 5767
5752 5753 5754 5756 5758 5760 5761 5762 5764 5764 5765 5766 5767 5768 5769 5769 5770 5770 5770 5770 5770 5771 5771 5770 5770 5770 5770 5770 5769 5769 5768 5767 5767 5766 5765 5764 5763 5762 5761 5760 5759 5758 5758 5757
5743 5744 5746 5748 5750 5751 5754 5755 5755 5756 5757 5757 5758 5759 5759 5760 5760 5760 5761 5761 5761 5761 5761 5761 5761 5761 5761 5760 5760 5759 5759 5758 5758 5757 5757 5756 5755 5754 5753 5752 5751 5750 5749 5749